Registrering Status Plassering
LN-FAW Operativ Kjeller 

Søk
Kontakt informasjon

Follo flyklubb.
Postboks 226, N-1401 Ski
Epost: post@follo-flyklubb.no

Tel: 47 25 54 90
Du er her: Hovedside

Velkommen til Follo flyklubb

 

Follo flyklubb er en flyklubb med primærbase på Ski flyplass. Disse websidene er ment som en informasjonskanal til flyklubbens medlemmer, og andre som måtte være interessert i Follo flyklubbs virksomhet. Har du kommentarer eller bidrag du ønsker å dele med flyklubben, send oss en melding her.

Har noen av flyklubbens medlemmer forslag til turer, aktiviteter eller kurs- og infokvelder dere ønsker at vi deltar på eller avholder, så gi beskjed til styret via epost.

 

Før flyturen: Ta en sjekk på datoer i sertifikatene dine. Husk at det er forskjell på gyldighetsdato for PPL-sertifikatet og klasserettighet, som f.eks. SEP. Her er noen nyttige spørsmål, og litt om rettigheter her.

ENGM 202150Z VRB02KT CAVOK 10/M03 Q1026
ENTO 202150Z AUTO 35003KT 9999 NCD 07/01 Q1027
ENRY 202150Z AUTO 11003KT 9999NDV BKN098/// 07/04 Q1027
ENSN 090850Z 20010G22KT 150V240 CAVOK 07/03 Q1000
ENCN 202150Z AUTO 06002KT 9999 NCD 06/01 Q1028
ENZV 202150Z VRB02KT CAVOK 09/01 Q1030
ENFL 202150Z AUTO 21010KT 180V240 9999NDV -RA OVC018/// 08/05 Q1028
ENFG 220850Z 19007KT CAVOK 06/M03 Q1014
ENNO 171850Z VRB01KT CAVOK 08/M03 Q1035
 

Leie av LN-FAW

Follo flyklubbs medlemmer har anledning til å leie LN-FAW, booking skjer via MyWebLog. Husk å loggføre turen etter turen.